User: anonymous   Login
Location: Turtle Rock Observatory
(36.6913°N, 81.9708°W)
Time: 05:29:28
(UTC-04:00)
Language:

Cosmos 1125 Rocket - Orbit

View from above orbital plane
View from above orbital plane
View from above satellite
View from above satellite

Ground track
Ground track

The orbit data is extracted from the following two-line orbital elements,

1 11511U 79078B   14298.15577226  .00000673  00000-0  23806-3 0  9289
2 11511 074.0365 290.5810 0014894 046.2698 024.8590 14.36473237839909
Epoch (UTC): 25 October 2014 03:44:18
Eccentricity: 0.0014894
inclination: 74.0365°
perigee height: 759 km
apogee height: 781 km
right ascension of ascending node: 290.5810°
argument of perigee: 46.2698°
revolutions per day: 14.36473237
mean anomaly at epoch: 24.8590°
orbit number at epoch: 83990

The dashed part of the orbit path shows where the satellite is in the earth's shadow,  

DLR